• Join FlightAware (Why Join?)
  • Login
  • US Flag 
12:17AM EDT


 

Airport Tracker/Info


-or-


 

Live Flight TrackerFlight Track Log ✈ N130RC ✈ 01-Aug-2013 ✈ KHIO - KHIO

Flight Track Log - Related Links

Times and Time Zones

All times are in EDT time to prevent confusion due to time zone crossing. See the N130RC flight status page for this flight to view local times or setup timezone preferences in your user account.

Time Position Orientation Groundspeed Altitude Reporting Facility
EDT Latitude Longitude Course Direction KTS MPH feet Rate Location/Type
04:28PM 45.5261 -122.9400 180° South 91 105 1,000  Level Seattle Center
04:30PM 45.4886 -122.9581 199° South 101 116 2,200 780 Climbing Seattle Center
04:31PM 45.4581 -122.9672 192° South 108 124 3,000 660 Climbing Seattle Center
04:32PM 45.4331 -122.9703 185° South 109 125 3,500 480 Climbing Seattle Center
04:33PM 45.5406 -122.9502 North  Level Estimated
04:33PM 45.3981 -122.9747 185° South 116 133 4,000  Level Seattle Center
04:34PM 45.5406 -122.9502 180° South  Level Estimated
04:34PM 45.4108 -123.0128 296° West 142 163 4,000  Level Seattle Center
04:35PM 45.4478 -123.0361 336° Northwest 147 169 4,100  Climbing Seattle Center
04:36PM 45.4889 -123.0647 334° Northwest 139 160 4,100 180 Level Seattle Center
04:37PM 45.5236 -123.0917 331° Northwest 124 143 4,500 360 Climbing Seattle Center
04:38PM 45.5506 -123.1114 333° Northwest 120 138 4,900 240 Climbing Seattle Center
04:39PM 45.5792 -123.1333 332° Northwest 120 138 5,000  Climbing Seattle Center
04:40PM 45.6100 -123.1636 326° Northwest 136 157 5,000  Level Seattle Center
04:41PM 45.6406 -123.1922 327° Northwest 132 152 5,000  Level Seattle Center
04:42PM 45.6717 -123.2206 328° Northwest 133 153 5,000  Level Seattle Center
04:43PM 45.7014 -123.2508 325° Northwest 132 152 5,100 -60 Climbing Seattle Center
04:44PM 45.7353 -123.2542 356° North 134 154 4,900 -420 Descending Seattle Center
04:45PM 45.7700 -123.2122 40° Northeast 167 192 4,300 -420 Descending Seattle Center
04:46PM 45.7447 -123.1786 137° Southeast 137 158 4,100 -300 Descending Seattle Center
04:47PM 45.7236 -123.1425 130° Southeast 123 142 3,800 -300 Descending Seattle Center
04:48PM 45.6958 -123.1194 150° Southeast 116 133 3,500 -300 Descending Seattle Center
04:49PM 45.6753 -123.0878 133° Southeast 109 125 3,300 -300 Descending Seattle Center
04:50PM 45.6503 -123.0672 150° Southeast 105 121 2,900 -600 Descending Seattle Center
04:51PM 45.6206 -123.0344 142° Southeast 113 130 2,000 -660 Descending Seattle Center
04:52PM 45.6017 -123.0153 145° Southeast 111 128 1,600 -600 Descending Seattle Center
04:53PM 45.5742 -122.9853 143° Southeast 108 124 800 -480 Descending Seattle Center
04:54PM 45.5606 -122.9722 146° Southeast 106 122 700 300 Descending Seattle Center
04:55PM 45.5225 -122.9444 153° Southeast 106 122 1,400 720 Climbing Seattle Center
04:56PM 45.4917 -122.9575 197° South 113 130 2,200 840 Climbing Seattle Center
04:57PM 45.4519 -122.9697 192° South 114 131 3,300 780 Climbing Seattle Center
04:58PM 45.4467 -122.9964 254° West 118 136 3,800 420 Climbing Seattle Center
04:59PM 45.4703 -123.0311 314° West 126 145 4,100 120 Climbing Seattle Center
05:00PM 45.4994 -123.0667 319° Northwest 137 158 4,100  Level Seattle Center
05:01PM 45.5286 -123.1028 319° Northwest 139 160 4,100  Level Seattle Center
05:02PM 45.5572 -123.1369 320° Northwest 134 154 4,100  Level Seattle Center
05:03PM 45.5897 -123.1814 316° Northwest 135 155 4,100  Level Seattle Center
05:04PM 45.6286 -123.2069 335° Northwest 142 163 4,100 -180 Level Seattle Center
05:05PM 45.6575 -123.2189 344° North 133 153 3,800 -300 Descending Seattle Center
05:06PM 45.6964 -123.2022 17° North 148 170 3,600 -180 Descending Seattle Center
05:07PM 45.7175 -123.1728 44° Northeast 143 165 3,500  Descending Seattle Center
05:08PM 45.7042 -123.1308 114° Southeast 123 142 3,600  Climbing Seattle Center
05:09PM 45.6761 -123.1047 147° Southeast 131 151 3,500 -420 Descending Seattle Center
05:11PM 45.6497 -123.0761 143° Southeast 123 142 2,800 -600 Descending Seattle Center
05:12PM 45.6289 -123.0447 133° Southeast 117 135 2,300 -540 Descending Seattle Center
05:13PM 45.6025 -123.0156 142° Southeast 109 125 1,800 -300 Descending Seattle Center
05:14PM 45.5806 -122.9942 146° Southeast 102 117 1,800  Level Seattle Center
05:15PM 45.5594 -122.9703 142° Southeast 99 114 1,900 240 Climbing Seattle Center
05:16PM 45.5364 -122.9497 148° Southeast 98 113 2,300 540 Climbing Seattle Center
05:17PM 45.5067 -122.9592 193° South 106 122 3,100 660 Climbing Seattle Center
05:18PM 45.4775 -122.9653 188° South 107 123 3,700 420 Climbing Seattle Center
05:19PM 45.4464 -122.9675 183° South 110 127 4,000 -60 Climbing Seattle Center
05:20PM 45.4050 -122.9300 148° Southeast 157 181 3,600 -300 Descending Seattle Center
05:21PM 45.3800 -122.8908 132° Southeast 141 162 3,400 -420 Descending Seattle Center
05:22PM 45.4047 -122.8411 55° Northeast 151 174 2,800 -420 Descending Seattle Center
05:23PM 45.4364 -122.8375 North 131 151 2,600 -300 Descending Seattle Center
05:24PM 45.4650 -122.8722 320° Northwest 116 133 2,200 -600 Descending Seattle Center
05:25PM 45.4917 -122.9008 323° Northwest 129 148 1,400 -720 Descending Seattle Center
05:26PM 45.5186 -122.9283 324° Northwest 125 144 800 -600 Descending Seattle Center